Hamilton Island, Australia

7:58 AM AEST on December 12, 2017 (GMT +1000)
Hamilton Island

Weather History for YBHM - January, 2013

Change the Weather History Date:

Sunday, January 27, 2013

  Actual Average Record
Temperature  
Mean Temperature 81 °F -  
Max Temperature 87 °F - - ()
Min Temperature 75 °F - - ()
Cooling Degree Days 16    
Growing Degree Days 31 (Base 50)    
Moisture  
Dew Point 81 °F    
Average Humidity 93    
Maximum Humidity 100    
Minimum Humidity 76    
Precipitation  
Precipitation 0.00 in - - ()
Sea Level Pressure  
Sea Level Pressure 29.47 in    
Wind  
Wind Speed 24 mph ()    
Max Wind Speed 32 mph    
Max Gust Speed 40 mph    
T = Trace of Precipitation, MM = Missing Value Source: Averaged Metar Reports

Daily Weather History Graph

Daily Weather History Graph

Search for Another Location

Airport or City:

Trip Planner

Search our weather history database for the weather conditions in past years. The results will help you decide how hot, cold, wet, or windy it might be!

Date:

Astronomy

Jan. 27, 2013 Rise Set
Actual Time 5:44 AM AEST 6:49 PM AEST
Civil Twilight 5:20 AM AEST 7:12 PM AEST
Nautical Twilight 4:52 AM AEST 7:40 PM AEST
Astronomical Twilight 4:24 AM AEST 8:09 PM AEST
Moon 6:39 PM AEST (1/27) 5:30 AM AEST (1/27)
Length of Visible Light 13h 51m
Length of Day
13h 04m
Full, 100% of the Moon is Illuminated
Jan 27
Full
Jan 27
Full
Feb 3
Last Quarter
Feb 10
New
Feb 18
First Quarter

Hourly Weather History & Observations

Time (AEST) Temp. Heat Index Dew Point Humidity Pressure Visibility Wind Dir Wind Speed Gust Speed Precip Events Conditions
12:00 AM 78 °F - 78 °F 100% 29.49 in - NW 32.2 mph - -  
12:00 AM 78.8 °F - 78.8 °F 100% 29.50 in - NW 32.2 mph - N/A   Unknown
12:30 AM 78.8 °F - 77.0 °F 94% 29.47 in - NW 28.8 mph - N/A   Unknown
1:00 AM 78.8 °F - 78.8 °F 100% 29.47 in - NNW 28.8 mph - N/A   Unknown
1:33 AM 78.8 °F - 78.8 °F 100% 29.44 in - NNW 28.8 mph 40.3 mph N/A   Unknown
2:00 AM 78.8 °F - 77.0 °F 94% 29.47 in - NNW 27.6 mph - N/A   Unknown
2:30 AM 78.8 °F - 78.8 °F 100% 29.47 in - NNW 24.2 mph - N/A   Unknown
3:00 AM 80 °F - 78 °F 91% 29.45 in - NW 24.2 mph - -  
3:00 AM 78.8 °F - 78.8 °F 100% 29.44 in - NW 24.2 mph - N/A   Unknown
3:30 AM 80.6 °F 88.1 °F 78.8 °F 94% 29.47 in - NW 23.0 mph - N/A   Unknown
4:00 AM 80.6 °F 88.1 °F 78.8 °F 94% 29.47 in - NNW 24.2 mph - N/A   Unknown
4:30 AM 80.6 °F 89.3 °F 80.6 °F 100% 29.47 in - NNW 23.0 mph - N/A   Unknown
5:00 AM 82.4 °F 94.0 °F 80.6 °F 94% 29.47 in - NNW 25.3 mph - N/A   Unknown
5:30 AM 82.4 °F 94.0 °F 80.6 °F 94% 29.47 in - NNW 29.9 mph - N/A   Unknown
6:00 AM 82 °F - 81 °F 96% 29.48 in - NNW 27.6 mph - -  
6:00 AM 82.4 °F 94.0 °F 80.6 °F 94% 29.47 in - NNW 27.6 mph - N/A   Unknown
6:30 AM 82.4 °F 94.0 °F 80.6 °F 94% 29.47 in - NNW 26.5 mph - N/A   Unknown
7:00 AM 82.4 °F 94.0 °F 80.6 °F 94% 29.50 in - NW 23.0 mph - N/A   Unknown
7:30 AM 82.4 °F 94.0 °F 80.6 °F 94% 29.50 in - NNW 23.0 mph - N/A   Unknown
8:00 AM 82.4 °F 96.1 °F 82.4 °F 100% 29.50 in - NW 25.3 mph - N/A   Unknown
8:30 AM 82.4 °F 96.1 °F 82.4 °F 100% 29.50 in - NW 27.6 mph - N/A   Unknown
9:00 AM 83 °F - 82 °F 97% 29.50 in - NW 27.6 mph - -  
9:00 AM 82.4 °F 96.1 °F 82.4 °F 100% 29.50 in - NW 27.6 mph - N/A   Unknown
9:30 AM 84.2 °F 100.6 °F 82.4 °F 94% 29.50 in - NW 25.3 mph - N/A   Unknown
10:00 AM 84.2 °F 100.6 °F 82.4 °F 94% 29.50 in - NW 25.3 mph - N/A   Unknown
10:30 AM 84.2 °F 100.6 °F 82.4 °F 94% 29.50 in - NW 26.5 mph - N/A   Unknown
11:00 AM 84.2 °F 100.6 °F 82.4 °F 94% 29.50 in - NNW 26.5 mph - N/A   Unknown
11:30 AM 84.2 °F 100.6 °F 82.4 °F 94% 29.50 in - NNW 24.2 mph - N/A   Unknown
12:00 PM 85 °F - 83 °F 90% 29.49 in - NNW 25.3 mph - -  
12:00 PM 86.0 °F 104.7 °F 82.4 °F 89% 29.50 in - NNW 25.3 mph - N/A   Unknown
12:30 PM 86.0 °F 104.7 °F 82.4 °F 89% 29.47 in - NNW 19.6 mph - N/A   Unknown
1:00 PM 86.0 °F 104.7 °F 82.4 °F 89% 29.47 in - NNW 21.9 mph - N/A   Unknown
1:30 PM 86.0 °F 104.7 °F 82.4 °F 89% 29.47 in - NNW 18.4 mph - N/A   Unknown
2:00 PM 87.8 °F 111.7 °F 84.2 °F 89% 29.44 in - NNW 21.9 mph - N/A   Unknown
2:30 PM 86.0 °F 104.7 °F 82.4 °F 89% 29.44 in - NNW 21.9 mph - N/A   Unknown
3:00 PM 87 °F - 81 °F 76% 29.44 in - NNW 20.7 mph - -  
3:00 PM 86.0 °F 101.9 °F 80.6 °F 84% 29.44 in - NNW 20.7 mph - N/A   Unknown
3:30 PM 86.0 °F 101.9 °F 80.6 °F 84% 29.44 in - NNW 21.9 mph - N/A   Unknown
4:00 PM 86.0 °F 101.9 °F 80.6 °F 84% 29.44 in - NNW 21.9 mph - N/A   Unknown
4:30 PM 84.2 °F 98.3 °F 80.6 °F 89% 29.44 in - NNW 20.7 mph - N/A   Unknown
5:00 PM 84.2 °F 98.3 °F 80.6 °F 89% 29.44 in - NW 21.9 mph - N/A   Unknown
5:30 PM 84.2 °F 98.3 °F 80.6 °F 89% 29.47 in - NNW 21.9 mph - N/A   Unknown